Wind_Speed
5 8 8 7 7 5 2 3 4 4 5 7 5 3 2 3 3 1 1 1 4 1 3 7 6 7 8 9 11 14 18 21 20 17 15 13 10 10 16 20 21 26 35 38 40 41 40 38 36 34 32 29 27 24 23 23 23 22 21 21 22 24 24
6 6 8 6 5 6 5 3 5 3 2 3 4 3 2 4 2 1 1 1 3 1 1 4 5 8 7 6 9 11 14 17 17 17 16 14 14 15 20 24 25 25 31 37 39 40 40 40 38 35 32 29 27 25 23 22 22 22 21 19 20 22 24
6 2 6 4 2 2 5 5 3 3 3 1 1 4 3 3 3 1 2 2 1 1 2 2 4 5 6 7 9 10 13 17 20 20 18 17 18 20 21 22 24 26 29 34 38 40 40 40 39 36 34 31 29 28 26 24 22 20 20 19 19 20 22
3 3 4 2 2 3 3 3 2 1 3 3 2 3 3 4 4 2 1 2 2 3 2 1 1 1 4 8 8 8 14 19 22 23 21 20 21 24 24 22 22 25 28 31 35 38 39 39 38 37 36 34 33 31 30 28 26 25 24 24 24 23 22
0 1 0 4 5 2 3 3 2 0 1 1 2 1 2 4 4 3 2 1 3 3 2 3 3 1 3 9 9 9 14 19 21 23 23 21 22 24 25 24 23 24 25 27 31 35 36 35 35 36 36 36 36 35 34 32 30 29 28 27 26 25 22
2 2 4 3 5 5 5 4 1 3 2 2 4 1 1 2 4 4 5 3 4 3 1 2 4 2 4 10 13 13 16 20 21 21 19 18 19 20 20 20 20 22 23 23 26 31 34 33 31 32 34 35 35 35 35 33 30 29 28 25 25 25 22
2 6 6 3 2 3 5 4 1 3 3 3 4 3 2 2 4 2 3 2 3 3 1 2 4 7 8 12 17 17 17 20 22 21 20 18 16 15 15 13 13 15 17 19 21 23 27 30 29 29 32 34 33 32 32 33 31 28 27 25 25 25 23
4 5 6 4 5 6 5 3 2 2 1 2 4 5 3 4 4 2 3 1 3 2 2 4 8 13 14 13 18 21 20 19 21 22 21 20 18 15 13 12 12 13 15 19 21 20 20 23 26 27 30 33 33 32 30 31 31 28 26 26 26 26 25
4 6 6 7 7 5 3 3 4 3 3 5 4 2 3 3 3 4 5 2 3 0 3 5 9 13 13 13 16 21 21 21 21 21 20 19 18 17 15 13 13 15 17 17 19 21 18 17 22 26 28 31 33 32 29 28 28 27 26 26 26 27 27
2 2 2 3 4 3 2 3 5 6 4 4 3 2 4 2 3 4 5 3 2 2 4 5 7 10 11 12 15 18 21 22 21 20 19 18 17 17 16 15 14 15 16 14 14 17 16 16 21 25 27 27 27 28 27 25 26 26 27 27 27 29 30
3 4 4 5 3 2 3 4 6 7 5 3 4 4 2 3 5 2 2 5 8 7 7 8 8 8 9 11 14 16 19 20 20 20 19 17 16 16 15 15 14 14 13 11 9 8 9 12 17 22 24 25 24 26 27 26 27 27 27 27 29 30 32
0 2 2 4 2 1 1 4 6 7 8 5 5 4 4 7 7 1 5 9 13 12 11 10 9 8 8 10 14 17 19 20 20 20 19 18 17 16 15 15 14 14 12 9 8 8 8 11 15 18 20 22 22 24 26 26 27 28 28 28 30 31 31
5 7 7 5 3 1 2 5 7 8 9 5 5 3 2 6 5 4 8 12 11 10 11 9 8 10 12 13 17 20 21 21 21 20 19 18 17 17 17 16 15 14 13 11 11 12 12 12 12 12 14 16 18 20 22 21 21 25 26 26 28 29 28
7 11 10 7 5 5 6 8 9 9 8 5 6 4 4 5 4 6 12 11 3 3 7 9 11 15 18 20 21 21 21 21 20 20 19 17 17 17 17 17 17 16 15 14 14 15 14 13 13 14 15 16 16 17 19 17 16 18 19 20 22 24 25
5 10 11 9 6 7 8 10 13 13 10 6 6 4 4 7 7 8 12 10 3 1 7 14 17 19 21 22 21 21 21 21 21 20 19 17 16 16 16 16 16 15 15 14 14 15 16 17 16 16 16 15 14 14 14 14 13 13 14 15 14 14 16
3 7 10 9 7 7 10 12 14 14 10 4 2 1 0 5 10 11 9 7 4 5 10 16 18 20 20 20 21 22 21 22 22 22 20 19 17 16 15 15 15 15 14 13 13 13 15 16 16 16 15 14 12 11 11 10 9 9 11 10 8 8 11
3 7 8 6 5 6 6 7 8 9 8 4 2 4 4 4 11 10 5 5 6 8 12 13 13 15 18 19 23 25 25 24 24 23 22 20 19 18 18 17 16 16 16 16 15 14 13 13 14 15 15 15 13 11 10 9 7 8 10 9 9 12 14
2 7 8 6 6 4 2 5 5 5 4 5 7 6 7 5 2 3 3 6 10 11 12 12 12 14 17 21 23 26 28 28 25 23 22 20 20 19 18 18 18 16 16 17 16 15 16 15 16 17 17 17 16 14 13 12 10 10 12 12 13 14 13
1 5 8 6 3 1 5 6 6 5 2 7 9 8 9 9 6 4 9 9 10 12 14 17 19 19 20 22 24 26 28 27 27 25 23 22 22 20 19 19 20 18 17 18 18 18 19 19 19 19 18 18 17 16 15 15 14 13 14 14 13 12 10
2 3 4 2 2 5 6 7 7 4 4 7 7 6 8 10 9 2 7 8 8 13 18 21 24 26 26 24 24 27 26 24 26 26 24 22 22 21 21 21 21 20 18 18 19 20 20 19 19 20 19 18 18 16 15 15 15 14 14 14 12 10 10
3 4 2 1 2 5 5 5 4 3 3 3 1 1 3 7 8 5 6 7 9 15 20 23 27 30 27 19 16 23 26 24 23 25 24 23 22 21 22 21 21 20 18 17 18 18 18 17 16 17 17 17 16 16 16 15 15 14 13 12 11 9 8
2 4 2 1 2 2 4 5 5 5 7 5 2 3 2 5 6 6 8 9 10 16 20 24 28 26 17 7 7 19 25 24 24 25 24 22 22 23 22 21 20 19 18 18 18 17 16 15 14 13 13 12 13 14 14 13 13 13 13 12 10 8 7
2 4 3 2 2 2 4 6 8 11 14 9 1 4 2 4 2 6 10 12 13 17 19 20 20 16 8 3 9 20 25 25 25 27 24 22 22 22 21 20 20 18 17 17 17 16 15 15 13 12 10 9 9 9 9 9 10 10 10 10 9 8 7
2 4 2 1 2 2 3 6 11 17 17 7 4 2 4 4 7 10 14 17 16 17 18 15 9 5 2 7 16 25 27 25 25 26 24 23 23 22 20 19 18 17 15 14 14 15 15 14 12 10 9 7 6 5 5 5 6 6 6 7 7 6 6
2 3 2 1 2 3 4 8 14 18 14 5 4 2 5 6 12 16 19 24 25 23 22 16 9 9 6 11 21 28 27 26 25 24 23 23 22 20 20 18 17 16 13 11 11 12 12 12 11 10 8 7 6 5 5 5 4 4 3 4 5 5 6
2 1 2 1 2 2 5 11 14 11 6 1 3 3 3 4 14 19 19 24 29 28 23 19 17 17 15 16 23 27 28 28 26 24 23 23 21 19 18 16 15 14 12 10 8 8 9 9 10 9 9 8 7 7 7 7 6 5 4 4 5 5 5
1 2 3 3 1 3 10 13 8 4 2 3 3 1 2 6 16 22 21 23 29 28 23 19 19 20 21 24 29 30 30 30 28 25 24 22 20 18 16 14 13 11 9 8 7 8 8 7 7 8 7 7 7 7 7 7 6 6 5 5 4 4 4
2 2 1 1 4 6 12 10 1 1 1 1 2 2 1 6 17 24 24 24 25 26 24 22 22 26 29 33 36 35 33 31 29 27 24 21 19 18 15 13 12 9 8 7 7 8 9 8 8 7 7 7 7 7 8 8 7 6 6 5 4 4 4
2 3 4 5 5 6 9 6 2 3 4 3 3 2 1 6 16 25 26 23 21 21 23 23 24 29 34 37 37 36 34 32 29 27 24 21 18 17 15 13 12 10 8 7 7 8 8 8 8 8 7 8 8 8 8 8 8 8 7 6 6 5 5
1 1 3 5 6 6 7 5 4 5 6 5 5 4 2 4 13 21 24 24 22 19 20 23 24 25 28 32 35 36 33 31 29 27 23 20 18 17 15 13 11 8 6 6 6 7 7 7 8 8 8 8 8 8 8 8 8 9 9 8 7 7 7
1 1 3 6 7 7 7 6 5 5 5 4 4 3 3 3 8 16 22 25 25 22 23 25 26 25 23 23 27 33 33 30 28 26 22 20 18 16 13 11 8 6 5 5 6 6 6 6 6 7 8 8 8 8 8 8 8 9 10 10 10 9 9
1 4 6 5 5 7 7 8 6 4 4 5 4 4 3 3 5 12 19 24 26 27 27 27 28 32 31 26 24 27 29 28 25 22 20 19 17 14 12 9 7 6 5 5 5 6 6 5 4 5 5 6 7 8 8 8 9 10 10 11 12 12 12
2 5 6 3 3 4 6 9 8 7 4 5 7 8 7 5 5 10 15 19 23 26 28 29 31 35 37 34 31 28 26 24 22 19 17 16 15 13 11 8 7 6 7 7 6 6 5 5 4 3 3 3 5 7 8 10 11 11 12 13 13 14 14
3 5 3 2 2 2 1 5 7 7 5 3 6 9 10 10 11 12 15 17 19 21 25 30 35 36 35 33 31 27 23 21 19 18 17 16 15 13 11 9 8 8 8 8 7 6 5 4 4 3 4 5 6 7 9 11 12 12 13 14 14 15 15
4 4 4 4 2 2 1 2 4 4 4 3 1 3 4 8 13 15 16 16 17 18 20 24 28 30 30 28 26 23 21 19 17 16 16 15 14 12 11 10 10 10 9 8 6 5 5 5 5 6 8 9 10 10 9 9 10 11 12 13 14 14 15
2 3 5 5 3 3 3 3 5 5 4 6 5 4 4 2 7 13 16 16 17 17 19 20 22 22 22 22 22 21 20 19 18 17 16 14 13 11 10 10 10 11 9 7 6 6 6 7 8 10 11 12 13 13 12 11 11 11 11 12 13 13 14
2 3 5 5 5 5 4 5 6 6 7 8 10 10 9 7 6 8 13 16 18 20 20 20 21 20 20 20 20 20 20 20 19 18 17 15 13 13 12 12 12 11 9 8 7 7 8 9 11 12 14 15 16 15 15 14 13 12 12 12 13 13 13
Wind_Direction
216 184 175 155 153 173 180 132 153 201 181 146 132 181 192 104 112 193 133 288 299 310 328 353 43 90 102 118 137 148 161 172 176 173 169 169 177 194 207 213 214 206 203 203 203 205 207 208 210 212 214 215 216 217 218 219 218 215 213 215 217 218 219
258 202 157 141 151 147 128 165 199 190 115 112 112 129 95 77 126 251 4 267 296 11 355 341 45 83 83 93 112 121 136 146 144 136 135 142 163 185 201 212 219 211 204 205 205 206 209 210 212 215 217 218 218 219 218 216 216 214 212 214 218 220 221
287 310 115 110 15 75 126 160 177 128 132 198 116 141 155 122 137 258 341 332 277 189 211 328 33 87 94 93 102 106 112 116 116 130 153 166 173 183 187 196 213 214 207 207 207 209 211 211 213 215 216 219 220 221 221 218 216 214 212 215 218 221 223
290 357 75 158 271 348 60 82 35 67 140 166 159 153 154 135 145 182 356 350 268 229 229 174 103 118 100 99 96 94 105 112 116 130 155 176 187 195 193 193 203 205 204 207 207 210 213 213 213 213 214 217 219 220 220 217 215 214 214 217 219 221 223
345 175 200 190 181 150 88 55 9 317 64 122 148 108 100 125 142 163 142 253 259 254 246 167 155 143 92 104 102 95 102 112 123 135 148 165 179 190 197 203 207 204 202 205 207 209 211 211 212 213 213 215 217 219 218 215 214 217 219 221 223 224 225
40 240 273 218 178 166 144 115 147 185 160 131 128 89 333 110 124 155 154 185 250 271 280 173 143 111 100 108 108 105 106 114 127 139 148 158 168 176 186 199 211 214 210 207 209 211 211 211 213 213 213 213 216 218 218 218 219 222 226 229 230 228 229
271 271 284 273 162 126 109 99 106 144 131 114 128 168 219 89 82 85 104 133 255 287 351 149 129 108 104 107 108 107 107 114 123 130 136 143 154 166 176 186 200 213 214 210 211 214 215 214 213 212 212 213 216 218 219 220 221 223 225 229 231 231 230
310 301 302 346 40 62 62 25 11 63 86 103 137 169 161 121 129 121 79 67 260 279 81 123 122 110 104 106 111 111 109 112 117 122 126 130 139 151 165 177 183 193 204 209 209 212 218 217 212 209 211 214 216 219 220 219 222 226 227 227 230 232 231
358 351 349 360 8 32 42 325 323 344 31 89 116 122 76 104 181 157 126 166 250 171 99 119 124 117 112 112 115 116 115 116 118 122 126 129 134 139 148 162 172 183 195 204 208 211 216 215 209 209 212 215 217 218 218 218 221 227 229 227 227 229 232
107 52 23 349 328 336 340 314 332 356 29 86 134 118 79 117 185 140 134 167 180 125 124 144 143 127 120 117 116 117 118 120 121 123 128 133 133 135 141 151 163 178 190 196 200 203 203 202 207 212 214 215 215 213 211 215 221 226 229 228 226 228 232
154 185 223 252 266 346 329 321 345 358 4 39 99 110 120 161 145 132 218 166 147 158 170 168 157 137 128 126 123 120 118 121 123 124 128 132 132 133 135 140 148 159 174 181 175 173 174 181 198 210 212 211 211 211 213 218 222 223 225 227 227 229 232
21 201 272 295 312 68 352 353 6 358 350 18 84 128 185 152 129 185 237 167 157 174 181 170 158 143 135 132 131 129 126 125 125 125 128 129 129 131 132 134 138 140 145 145 125 113 121 154 184 204 209 209 213 217 219 220 220 220 222 226 229 230 230
10 23 20 7 30 84 19 26 35 16 358 22 91 119 157 140 142 190 184 168 166 173 167 157 150 144 137 135 136 135 132 129 128 127 127 128 129 130 130 130 132 130 128 120 106 102 109 131 155 170 181 192 200 206 210 210 209 210 213 218 224 227 228
10 19 21 17 32 46 23 15 28 28 13 36 78 78 74 78 92 144 146 142 132 148 148 139 142 143 136 132 134 135 133 131 130 127 125 124 128 132 130 129 129 127 123 116 108 104 105 113 122 129 147 168 178 185 193 195 192 195 200 208 217 221 225
359 8 14 6 8 40 37 14 11 13 11 29 61 82 85 73 78 107 118 118 95 210 145 136 141 143 135 132 133 134 134 134 130 127 124 123 125 128 130 129 127 127 125 122 118 112 110 113 117 124 135 146 153 161 171 178 180 185 194 201 206 212 218
332 346 2 348 337 22 31 15 5 358 346 345 30 355 173 122 122 115 111 128 168 186 149 137 141 143 137 136 136 134 135 136 132 129 126 125 124 122 125 127 126 126 126 127 130 129 127 126 125 127 132 133 135 138 144 155 166 172 182 190 192 203 212
285 328 353 347 2 33 13 349 352 337 312 310 1 359 4 112 134 136 154 170 158 156 148 139 142 146 143 143 142 141 141 138 134 132 128 125 124 121 122 123 121 119 119 121 126 131 136 141 140 140 143 143 141 139 139 141 141 145 156 164 172 185 194
274 328 358 24 43 54 271 289 330 319 319 40 60 41 16 11 98 116 114 133 139 149 154 148 149 151 149 150 149 146 144 139 135 134 132 130 130 129 127 123 116 113 114 114 113 117 126 135 139 141 143 142 143 146 148 146 144 145 147 153 162 169 171
88 348 21 45 42 282 260 296 325 309 347 63 68 56 28 5 354 74 102 121 139 144 142 141 140 139 141 145 146 145 144 142 141 139 137 134 134 134 133 127 119 114 113 111 109 116 126 130 131 133 130 128 133 142 149 151 153 155 157 161 166 170 171
95 56 52 103 234 282 301 320 334 346 23 36 39 33 22 5 348 30 118 121 116 115 120 127 130 130 130 130 138 147 149 147 146 144 142 140 137 134 132 132 129 124 119 114 113 119 127 128 127 126 122 118 120 126 135 144 148 153 158 161 162 163 169
112 116 125 198 306 325 320 323 337 359 358 345 26 29 348 349 350 13 97 99 97 106 113 119 123 125 121 115 131 150 153 151 147 144 143 143 140 135 132 132 134 132 125 118 117 119 123 126 126 125 124 125 124 120 122 130 138 146 153 154 151 151 156
86 97 90 55 28 310 270 275 296 328 327 296 185 118 331 329 3 57 103 108 110 115 118 124 127 124 117 105 147 155 151 150 147 142 142 142 141 142 139 133 132 135 134 129 127 127 125 123 124 128 132 136 137 132 126 126 132 139 143 144 145 150 155
56 94 104 137 157 223 261 278 298 330 336 324 48 79 319 294 40 103 116 111 111 119 125 131 131 126 125 164 172 159 152 149 148 146 144 142 142 144 143 135 131 135 140 141 140 140 135 128 127 136 145 148 147 145 141 139 140 139 138 139 140 146 155
86 98 110 192 197 250 281 288 306 326 334 344 86 60 280 221 155 141 129 122 123 127 131 133 118 90 144 185 169 160 154 151 152 152 149 145 145 147 146 143 140 140 144 148 150 150 147 142 141 148 161 169 172 173 171 166 163 157 150 148 148 152 163
54 84 119 243 267 250 272 301 316 330 340 9 117 202 248 189 163 161 149 146 151 151 148 147 116 74 91 156 161 158 156 155 154 153 150 147 147 150 151 151 150 149 153 157 160 161 161 161 166 175 187 200 210 213 214 216 216 207 192 178 177 183 189
12 94 122 355 294 251 307 319 326 343 355 296 200 218 254 196 176 173 164 160 161 158 155 153 134 115 122 151 163 165 165 163 158 155 154 152 152 155 156 157 158 160 162 167 174 179 178 179 186 195 206 220 229 227 224 226 228 227 224 216 210 208 208
40 51 58 44 226 285 340 339 336 7 43 217 221 243 281 213 189 182 177 172 168 163 160 159 157 156 161 170 174 173 170 167 163 160 160 159 159 163 164 164 169 173 176 182 191 196 197 203 211 215 219 223 222 220 221 224 226 226 224 224 223 223 223
89 77 75 199 227 296 344 351 335 158 131 233 310 328 250 202 194 191 187 182 176 173 172 170 169 169 168 170 173 173 170 169 166 164 165 166 168 173 176 177 182 190 198 202 204 204 205 212 219 225 228 223 216 215 218 222 228 231 227 223 223 229 233
148 177 216 266 294 329 355 10 79 125 114 89 19 351 140 182 193 195 195 192 187 184 181 176 170 169 170 171 172 172 169 168 167 166 169 172 174 180 185 188 194 202 210 212 212 210 210 211 213 217 222 222 221 221 221 224 231 236 235 230 225 226 232
316 207 253 314 347 13 27 46 96 117 112 84 44 25 44 164 189 196 196 193 191 189 181 169 160 162 168 171 172 173 170 168 169 171 173 176 181 187 192 197 203 206 209 216 220 217 212 205 204 207 214 220 224 223 224 227 232 237 243 245 241 237 239
62 194 292 344 24 45 43 57 97 119 115 94 60 32 39 100 172 193 197 196 197 198 192 182 173 170 171 171 172 172 171 170 172 175 176 177 181 187 195 201 205 211 219 221 219 218 212 203 198 200 205 212 218 221 227 234 239 244 249 253 256 256 254
151 234 277 329 56 80 67 61 65 73 101 119 113 104 92 87 149 185 193 196 196 194 192 192 188 182 181 184 181 174 171 171 172 173 175 177 181 189 196 199 205 220 233 228 219 214 212 207 204 203 206 213 221 227 236 243 249 256 260 262 265 268 267
305 286 291 320 96 98 69 62 54 49 81 144 144 135 135 134 155 178 184 187 192 194 194 195 190 183 183 187 188 181 176 175 174 176 181 187 192 198 200 203 213 224 229 229 225 217 209 210 217 226 233 237 240 246 252 255 258 263 268 270 272 273 274
280 268 255 141 146 213 31 58 54 46 51 113 151 149 151 154 158 169 175 176 181 188 192 190 185 180 179 183 186 186 184 184 185 188 192 195 198 202 207 214 222 227 228 225 220 215 215 222 237 266 287 294 292 285 276 271 269 270 270 272 275 276 277
227 225 198 160 160 224 253 16 15 17 19 11 76 123 146 164 167 169 175 178 181 183 185 186 185 183 182 184 189 192 193 195 199 201 203 206 208 209 213 217 220 224 225 223 222 229 242 252 271 292 303 307 308 304 294 282 277 274 274 275 276 278 281
216 206 194 189 202 229 237 279 302 310 306 291 286 309 328 266 198 185 184 188 193 196 195 195 197 199 200 200 202 204 205 207 210 211 213 217 219 223 227 228 225 224 225 234 247 256 265 276 286 293 301 306 307 305 299 289 281 278 279 281 283 286 289
232 221 210 212 228 237 236 253 270 277 279 274 266 264 272 279 258 221 204 197 198 201 205 206 207 212 217 215 212 213 214 214 214 214 217 221 228 235 237 232 228 230 237 250 259 263 272 281 288 295 302 306 307 306 301 296 291 290 290 291 293 294 296
Height
1463 1466 1465 1465 1473 1482 1486 1487 1489 1490 1484 1488 1504 1515 1514 1514 1527 1533 1527 1525 1520 1512 1509 1503 1500 1503 1504 1505 1508 1509 1513 1517 1522 1527 1530 1534 1537 1540 1542 1543 1544 1545 1547 1549 1550 1552 1554 1556 1558 1559 1561 1563 1565 1567 1570 1572 1574 1575 1577 1579 1581 1582 1584
1464 1462 1463 1463 1465 1471 1481 1487 1483 1481 1483 1486 1494 1512 1523 1526 1536 1536 1529 1529 1528 1523 1519 1511 1506 1508 1508 1508 1509 1511 1515 1518 1522 1526 1529 1534 1537 1540 1542 1542 1543 1544 1545 1547 1549 1551 1553 1554 1556 1558 1560 1562 1564 1566 1568 1570 1572 1573 1575 1577 1578 1580 1581
1467 1461 1465 1470 1467 1465 1471 1476 1474 1478 1492 1495 1493 1507 1523 1531 1543 1544 1534 1531 1530 1527 1523 1517 1514 1514 1512 1511 1511 1513 1516 1519 1523 1525 1528 1531 1534 1537 1538 1540 1541 1542 1543 1546 1548 1549 1551 1552 1555 1557 1559 1561 1563 1564 1566 1568 1570 1571 1573 1575 1576 1578 1579
1469 1465 1470 1477 1476 1470 1467 1471 1474 1477 1485 1491 1491 1498 1508 1522 1539 1545 1539 1536 1530 1525 1522 1518 1518 1517 1513 1513 1514 1515 1517 1519 1522 1524 1526 1529 1531 1533 1536 1538 1539 1540 1543 1546 1547 1548 1550 1552 1554 1556 1558 1560 1561 1563 1565 1566 1568 1569 1571 1572 1573 1575 1577
1471 1474 1475 1475 1476 1475 1474 1477 1481 1481 1482 1484 1489 1495 1500 1511 1529 1538 1542 1541 1531 1521 1519 1517 1517 1516 1514 1514 1515 1517 1519 1519 1521 1522 1524 1526 1529 1532 1535 1537 1538 1541 1543 1545 1546 1547 1549 1551 1553 1555 1557 1558 1559 1562 1564 1566 1568 1569 1570 1571 1572 1575 1578
1476 1476 1473 1471 1471 1472 1473 1478 1481 1483 1483 1485 1494 1504 1505 1505 1514 1524 1531 1533 1527 1520 1516 1514 1515 1516 1516 1515 1515 1518 1520 1520 1521 1523 1524 1526 1528 1531 1533 1535 1537 1539 1542 1544 1545 1546 1548 1549 1551 1554 1555 1556 1558 1560 1562 1565 1568 1569 1570 1571 1574 1577 1578
1479 1476 1472 1471 1471 1469 1470 1475 1479 1481 1482 1484 1492 1501 1505 1507 1511 1514 1519 1525 1524 1518 1514 1514 1515 1516 1516 1518 1517 1518 1521 1521 1521 1523 1524 1526 1527 1529 1532 1534 1536 1538 1540 1542 1544 1546 1547 1548 1550 1551 1552 1554 1557 1559 1560 1562 1564 1566 1568 1570 1574 1576 1577
1478 1473 1470 1469 1468 1471 1475 1478 1478 1479 1480 1481 1485 1490 1495 1506 1513 1513 1519 1529 1526 1517 1513 1515 1516 1516 1518 1520 1519 1519 1521 1522 1522 1523 1524 1525 1527 1529 1531 1533 1535 1537 1539 1541 1542 1544 1546 1548 1548 1548 1549 1553 1556 1557 1557 1560 1563 1565 1567 1569 1572 1575 1575
1488 1484 1482 1480 1477 1478 1483 1484 1481 1480 1480 1480 1484 1487 1491 1503 1512 1510 1515 1530 1529 1518 1515 1517 1517 1517 1519 1521 1521 1521 1521 1523 1523 1524 1524 1526 1528 1529 1531 1532 1534 1536 1538 1539 1540 1542 1545 1548 1548 1547 1548 1551 1554 1555 1556 1559 1563 1566 1567 1568 1570 1572 1574
1508 1508 1504 1499 1493 1488 1487 1486 1483 1481 1481 1481 1483 1489 1493 1503 1511 1509 1512 1525 1527 1519 1517 1519 1519 1519 1521 1522 1523 1523 1523 1524 1525 1526 1527 1528 1529 1530 1531 1532 1534 1536 1537 1539 1540 1540 1543 1547 1547 1547 1548 1550 1553 1555 1557 1560 1564 1565 1565 1567 1568 1569 1571
1510 1509 1504 1498 1495 1494 1492 1489 1485 1483 1483 1482 1483 1489 1492 1498 1508 1513 1512 1517 1522 1521 1520 1520 1520 1520 1521 1523 1524 1525 1525 1526 1527 1528 1529 1529 1530 1531 1532 1533 1535 1537 1537 1538 1539 1539 1542 1546 1546 1546 1547 1549 1551 1553 1555 1558 1561 1561 1563 1564 1565 1567 1568
1504 1501 1498 1493 1492 1495 1495 1492 1488 1485 1484 1483 1483 1487 1489 1493 1503 1513 1512 1511 1515 1518 1517 1518 1520 1521 1521 1523 1524 1525 1526 1528 1529 1530 1531 1531 1532 1532 1533 1535 1536 1538 1538 1539 1539 1540 1542 1544 1544 1544 1546 1547 1549 1552 1553 1554 1556 1558 1560 1561 1563 1564 1565
1501 1498 1496 1493 1493 1495 1495 1493 1491 1488 1487 1485 1485 1489 1492 1491 1492 1499 1506 1510 1512 1513 1514 1516 1519 1520 1521 1523 1524 1525 1527 1529 1531 1532 1533 1533 1534 1534 1536 1537 1538 1539 1540 1540 1540 1541 1542 1544 1544 1544 1546 1547 1548 1550 1552 1553 1554 1556 1558 1560 1561 1562 1563
1501 1499 1498 1496 1495 1495 1495 1495 1493 1491 1491 1490 1489 1494 1496 1493 1492 1495 1502 1510 1513 1512 1513 1515 1518 1520 1522 1523 1525 1527 1528 1531 1532 1533 1534 1535 1536 1537 1538 1538 1539 1540 1541 1541 1542 1543 1543 1544 1545 1545 1546 1547 1547 1549 1551 1552 1553 1554 1556 1559 1560 1559 1560
1504 1503 1500 1498 1499 1499 1497 1497 1495 1494 1495 1493 1494 1497 1497 1498 1503 1503 1505 1512 1516 1514 1512 1514 1518 1521 1522 1523 1526 1528 1529 1531 1533 1534 1536 1537 1538 1539 1539 1540 1541 1541 1542 1543 1543 1544 1545 1545 1545 1545 1546 1546 1547 1549 1550 1551 1552 1553 1555 1557 1558 1558 1559
1511 1508 1506 1504 1502 1498 1497 1499 1500 1501 1501 1497 1496 1497 1496 1498 1505 1509 1512 1515 1515 1512 1511 1515 1518 1521 1522 1524 1526 1528 1530 1532 1533 1535 1537 1538 1539 1540 1541 1542 1542 1542 1542 1543 1544 1545 1546 1547 1547 1547 1547 1547 1548 1549 1550 1551 1552 1553 1555 1556 1558 1560 1561
1514 1513 1511 1505 1502 1506 1510 1508 1506 1507 1506 1500 1497 1498 1498 1497 1500 1505 1508 1507 1507 1508 1510 1514 1518 1521 1523 1524 1525 1527 1529 1532 1534 1535 1537 1538 1540 1541 1543 1543 1543 1543 1543 1544 1544 1545 1546 1547 1548 1549 1549 1550 1549 1549 1551 1553 1553 1554 1556 1557 1559 1562 1562
1516 1516 1508 1505 1515 1525 1521 1510 1505 1507 1506 1502 1502 1505 1505 1503 1500 1499 1499 1499 1502 1507 1509 1512 1517 1520 1522 1524 1526 1527 1528 1530 1534 1536 1538 1540 1541 1543 1544 1545 1545 1545 1545 1546 1546 1547 1547 1548 1549 1550 1551 1551 1551 1552 1553 1554 1555 1556 1558 1560 1561 1562 1561
1521 1519 1513 1521 1534 1529 1514 1507 1506 1506 1504 1503 1504 1507 1509 1508 1504 1501 1500 1502 1504 1506 1508 1511 1515 1519 1522 1525 1527 1528 1529 1530 1533 1536 1539 1541 1542 1544 1546 1546 1546 1547 1548 1548 1549 1549 1549 1550 1551 1551 1552 1552 1553 1554 1555 1556 1557 1558 1560 1560 1560 1560 1560
1525 1528 1529 1534 1533 1519 1508 1509 1508 1505 1505 1506 1506 1509 1511 1512 1509 1505 1505 1507 1508 1508 1511 1514 1516 1520 1523 1526 1529 1531 1532 1532 1533 1536 1539 1542 1543 1545 1546 1547 1548 1549 1549 1550 1550 1550 1551 1552 1552 1553 1553 1553 1554 1555 1556 1557 1558 1558 1559 1559 1559 1559 1559
1524 1530 1532 1528 1524 1519 1515 1513 1512 1511 1513 1513 1513 1515 1516 1515 1512 1510 1510 1511 1512 1513 1515 1517 1520 1522 1524 1529 1533 1534 1534 1535 1536 1537 1539 1542 1544 1545 1546 1547 1548 1550 1551 1551 1552 1552 1553 1554 1554 1554 1555 1555 1555 1556 1557 1557 1558 1559 1559 1559 1559 1559 1559
1523 1525 1527 1529 1534 1532 1522 1515 1515 1515 1514 1514 1514 1517 1518 1516 1514 1513 1512 1513 1515 1516 1518 1521 1522 1523 1529 1535 1537 1536 1537 1537 1537 1538 1541 1542 1544 1545 1546 1547 1548 1550 1552 1552 1553 1554 1554 1555 1556 1556 1556 1556 1557 1557 1557 1557 1558 1559 1559 1559 1559 1559 1559
1524 1524 1527 1533 1537 1532 1521 1515 1515 1514 1514 1512 1512 1518 1522 1518 1516 1516 1514 1514 1516 1516 1519 1522 1522 1525 1533 1538 1537 1537 1538 1538 1537 1539 1541 1543 1544 1545 1546 1547 1548 1551 1553 1554 1555 1555 1556 1556 1557 1557 1558 1558 1558 1558 1558 1558 1558 1558 1559 1559 1559 1560 1560
1525 1526 1529 1531 1529 1525 1521 1517 1514 1513 1512 1510 1516 1527 1527 1517 1515 1517 1516 1516 1518 1519 1520 1522 1524 1528 1533 1534 1534 1536 1538 1539 1539 1540 1541 1543 1544 1545 1546 1547 1549 1551 1553 1554 1555 1556 1557 1557 1558 1558 1559 1559 1559 1559 1559 1558 1558 1558 1558 1558 1559 1559 1560
1527 1527 1529 1530 1527 1523 1520 1517 1514 1512 1510 1513 1523 1529 1522 1515 1517 1518 1516 1516 1517 1518 1519 1520 1523 1528 1531 1534 1536 1538 1538 1539 1541 1542 1543 1544 1545 1545 1546 1548 1549 1551 1553 1554 1555 1556 1557 1558 1558 1559 1559 1559 1559 1559 1559 1558 1558 1558 1558 1558 1558 1559 1559
1531 1530 1529 1531 1530 1523 1519 1517 1515 1512 1514 1519 1523 1521 1516 1516 1518 1516 1516 1516 1515 1516 1519 1519 1520 1523 1528 1536 1541 1542 1540 1540 1541 1542 1543 1544 1545 1546 1547 1548 1550 1551 1553 1554 1555 1555 1556 1557 1558 1558 1559 1559 1559 1559 1558 1558 1558 1558 1558 1558 1558 1559 1559
1534 1533 1533 1536 1534 1525 1519 1518 1516 1515 1518 1519 1518 1516 1516 1517 1516 1516 1517 1517 1516 1517 1519 1520 1521 1521 1524 1533 1540 1542 1541 1540 1539 1541 1543 1543 1545 1546 1547 1549 1550 1551 1552 1554 1554 1555 1555 1556 1556 1557 1558 1558 1558 1558 1558 1558 1558 1558 1558 1558 1558 1558 1558
1533 1535 1535 1534 1530 1523 1520 1520 1519 1518 1518 1517 1516 1516 1516 1515 1515 1517 1517 1517 1518 1519 1519 1520 1523 1523 1525 1531 1535 1537 1539 1538 1539 1540 1541 1543 1544 1545 1547 1549 1550 1551 1552 1553 1553 1554 1555 1555 1556 1556 1556 1557 1557 1557 1557 1557 1557 1557 1557 1557 1558 1558 1558
1530 1532 1530 1527 1524 1523 1522 1521 1520 1519 1518 1518 1518 1517 1515 1515 1515 1516 1517 1518 1520 1521 1521 1523 1524 1526 1528 1530 1532 1534 1536 1536 1537 1539 1540 1541 1543 1545 1547 1548 1549 1550 1551 1552 1552 1553 1554 1555 1555 1555 1555 1555 1555 1556 1556 1556 1556 1556 1556 1557 1557 1557 1557
1528 1528 1526 1525 1524 1524 1523 1522 1521 1520 1520 1519 1519 1518 1517 1516 1516 1516 1518 1519 1519 1521 1523 1524 1527 1530 1533 1533 1533 1533 1534 1535 1536 1537 1538 1540 1542 1544 1546 1547 1549 1549 1550 1550 1551 1552 1553 1554 1555 1555 1555 1554 1554 1554 1555 1555 1555 1555 1555 1556 1556 1556 1557
1528 1528 1526 1525 1524 1524 1524 1523 1522 1521 1520 1520 1520 1520 1519 1518 1518 1518 1519 1519 1521 1523 1525 1525 1526 1531 1536 1540 1539 1535 1533 1534 1535 1536 1538 1540 1542 1544 1545 1547 1548 1549 1549 1549 1550 1551 1552 1553 1553 1554 1554 1554 1554 1554 1554 1554 1554 1554 1554 1555 1555 1555 1555
1528 1527 1525 1525 1525 1525 1524 1524 1523 1522 1522 1521 1521 1521 1520 1520 1520 1520 1520 1520 1521 1523 1524 1525 1525 1528 1534 1541 1543 1539 1536 1535 1536 1537 1539 1540 1542 1544 1545 1546 1548 1548 1548 1549 1549 1550 1551 1552 1552 1553 1554 1553 1553 1553 1553 1553 1553 1553 1553 1554 1553 1553 1554
1528 1527 1525 1525 1526 1526 1525 1525 1524 1523 1523 1522 1522 1522 1522 1522 1522 1522 1522 1523 1523 1523 1524 1524 1526 1527 1530 1535 1539 1540 1538 1537 1538 1539 1540 1541 1543 1544 1545 1546 1547 1548 1548 1549 1549 1549 1550 1551 1552 1552 1553 1553 1553 1553 1552 1552 1552 1552 1552 1552 1552 1552 1552
1529 1527 1525 1525 1526 1527 1526 1525 1525 1525 1524 1524 1524 1524 1524 1524 1524 1524 1524 1525 1526 1526 1526 1526 1527 1529 1531 1534 1537 1537 1537 1537 1538 1539 1540 1541 1543 1544 1545 1546 1546 1547 1548 1548 1549 1549 1550 1550 1551 1551 1551 1552 1552 1552 1551 1551 1551 1551 1551 1551 1551 1551 1551
1527 1525 1524 1525 1525 1526 1525 1525 1525 1526 1526 1525 1525 1525 1525 1525 1525 1525 1526 1527 1528 1529 1529 1530 1531 1531 1533 1535 1537 1537 1537 1538 1538 1539 1540 1541 1542 1543 1544 1545 1545 1546 1547 1547 1548 1548 1549 1549 1549 1550 1550 1550 1550 1550 1550 1549 1549 1549 1549 1549 1549 1549 1549
1523 1523 1524 1524 1524 1525 1525 1525 1525 1525 1526 1526 1526 1527 1527 1527 1527 1526 1527 1527 1528 1529 1530 1531 1532 1533 1534 1535 1536 1536 1537 1538 1538 1539 1540 1541 1541 1542 1543 1543 1544 1545 1546 1547 1547 1547 1547 1548 1548 1548 1548 1548 1548 1548 1548 1548 1548 1547 1547 1547 1547 1547 1547
1522 1523 1523 1523 1524 1524 1525 1525 1525 1525 1525 1525 1526 1526 1527 1528 1528 1527 1527 1527 1527 1528 1529 1530 1531 1532 1533 1534 1534 1535 1536 1536 1537 1538 1539 1540 1541 1541 1541 1542 1543 1544 1545 1546 1546 1545 1546 1546 1546 1546 1547 1546 1546 1546 1546 1546 1546 1546 1546 1546 1545 1545 1545